Santiago de Compostela, Spain

2:41 PM CET on December 16, 2017 (GMT +0100)
Santiago

Weather History for LEST - October, 2012

Change the Weather History Date:

Friday, October 26, 2012

  Actual Average Record
Temperature  
Mean Temperature 60 °F -  
Max Temperature 66 °F 55 °F 80 °F (2014)
Min Temperature 53 °F 43 °F 35 °F (1996)
Degree Days  
Heating Degree Days 6    
Growing Degree Days 10 (Base 50)    
Moisture  
Dew Point 56 °F    
Average Humidity 92    
Maximum Humidity 100    
Minimum Humidity 64    
Precipitation  
Precipitation 0.00 in - - ()
Sea Level Pressure  
Sea Level Pressure 29.60 in    
Wind  
Wind Speed 4 mph ()    
Max Wind Speed 13 mph    
Max Gust Speed -    
Visibility 5.7 miles    
Events Fog , Rain    
Averages and records for this station are not official NWS values.
T = Trace of Precipitation, MM = Missing Value Source: Averaged Metar Reports

Daily Weather History Graph

Daily Weather History Graph

Search for Another Location

Airport or City:

Trip Planner

Search our weather history database for the weather conditions in past years. The results will help you decide how hot, cold, wet, or windy it might be!

Date:

Astronomy

Oct. 26, 2012 Rise Set
Actual Time 9:00 AM CEST 7:33 PM CEST
Civil Twilight 8:31 AM CEST 8:02 PM CEST
Nautical Twilight 7:58 AM CEST 8:36 PM CEST
Astronomical Twilight 7:25 AM CEST 9:08 PM CEST
Moon 5:46 PM CEST (10/26) 5:39 AM CEST (10/26)
Length of Visible Light 11h 31m
Length of Day
10h 32m
Waxing Gibbous, 89% of the Moon is Illuminated
Oct 26
Waxing Gibbous
Oct 29
Full
Nov 7
Last Quarter
Nov 13
New
Nov 20
First Quarter

Hourly Weather History & Observations

Time (CEST) Temp. Dew Point Humidity Pressure Visibility Wind Dir Wind Speed Gust Speed Precip Events Conditions
12:00 AM 57.2 °F 57.2 °F 100% 29.59 in 5.0 mi Variable 2.3 mph - N/A Rain Light Rain
12:30 AM 57.2 °F 57.2 °F 100% 29.59 in 5.0 mi East 3.5 mph - N/A Rain Light Rain
1:00 AM 57.2 °F 57.2 °F 100% 29.59 in 5.0 mi Variable 2.3 mph - N/A Rain Light Rain
1:30 AM 57.2 °F 57.2 °F 100% 29.59 in 5.0 mi SE 3.5 mph - N/A Rain Light Rain
2:00 AM 57.2 °F 57.2 °F 100% 29.59 in 5.0 mi East 4.6 mph - N/A Rain Light Rain
2:30 AM 57.2 °F 57.2 °F 100% 29.59 in 5.0 mi ESE 4.6 mph - N/A Rain Light Rain
3:00 AM 57.2 °F 57.2 °F 100% 29.59 in 5.0 mi SE 5.8 mph - N/A Rain Light Rain
3:30 AM 55.4 °F 55.4 °F 100% 29.56 in 5.0 mi ESE 5.8 mph - N/A Rain Light Rain
4:00 AM 55.4 °F 55.4 °F 100% 29.59 in 5.0 mi Variable 2.3 mph - N/A Rain Light Rain
4:30 AM 55.4 °F 55.4 °F 100% 29.59 in 5.0 mi Variable 2.3 mph - N/A Rain Light Rain
5:30 AM 57.2 °F 55.4 °F 94% 29.56 in 5.0 mi Variable 1.2 mph - N/A Rain Light Rain
6:00 AM 55.4 °F 55.4 °F 100% 29.56 in 5.6 mi Variable 2.3 mph - N/A   Scattered Clouds
6:30 AM 55.4 °F 55.4 °F 100% 29.56 in 5.6 mi Calm Calm - N/A   Scattered Clouds
7:00 AM 53.6 °F 53.6 °F 100% 29.56 in 1.9 mi Calm Calm - N/A Fog Patches of Fog
7:30 AM 53.6 °F 53.6 °F 100% 29.56 in 3.7 mi Calm Calm - N/A Fog Scattered Clouds
8:00 AM 53.6 °F 53.6 °F 100% 29.56 in 6.2 mi Variable 1.2 mph - N/A Fog Scattered Clouds
8:30 AM 53.6 °F 53.6 °F 100% 29.56 in 6.2 mi Variable 2.3 mph - N/A Fog Scattered Clouds
9:00 AM 55.4 °F 55.4 °F 100% 29.56 in 6.2 mi East 3.5 mph - N/A   Partly Cloudy
9:30 AM 55.4 °F 55.4 °F 100% 29.56 in 6.2 mi ENE 3.5 mph - N/A   Partly Cloudy
10:00 AM 57.2 °F 55.4 °F 94% 29.59 in 6.2 mi Variable 2.3 mph - N/A   Partly Cloudy
10:30 AM 55.4 °F 55.4 °F 100% 29.59 in 6.2 mi East 3.5 mph - N/A   Partly Cloudy
11:00 AM 59.0 °F 55.4 °F 88% 29.59 in 6.2 mi East 3.5 mph - N/A   Partly Cloudy
11:30 AM 60.8 °F 55.4 °F 82% 29.59 in 6.2 mi East 3.5 mph - N/A   Partly Cloudy
12:00 PM 62.6 °F 55.4 °F 77% 29.59 in 6.2 mi Variable 2.3 mph - N/A   Partly Cloudy
12:30 PM 62.6 °F 55.4 °F 77% 29.59 in 6.2 mi East 3.5 mph - N/A   Partly Cloudy
1:00 PM 64.4 °F 55.4 °F 73% 29.59 in 6.2 mi Variable 2.3 mph - N/A   Partly Cloudy
1:30 PM 62.6 °F 53.6 °F 72% 29.59 in 6.2 mi North 5.8 mph - N/A   Scattered Clouds
2:00 PM 64.4 °F 55.4 °F 73% 29.59 in 6.2 mi North 6.9 mph - N/A   Scattered Clouds
3:00 PM 64.4 °F 55.4 °F 73% 29.59 in 6.2 mi North 8.1 mph - N/A   Scattered Clouds
3:30 PM 66.2 °F 53.6 °F 64% 29.59 in 6.2 mi North 9.2 mph - N/A   Scattered Clouds
4:00 PM 64.4 °F 55.4 °F 73% 29.59 in 6.2 mi North 11.5 mph - N/A   Scattered Clouds
5:00 PM 62.6 °F 55.4 °F 77% 29.59 in 6.2 mi North 8.1 mph - N/A   Partly Cloudy
5:30 PM 62.6 °F 55.4 °F 77% 29.59 in 6.2 mi North 12.7 mph - N/A   Partly Cloudy
6:00 PM 62.6 °F 55.4 °F 77% 29.59 in 6.2 mi North 11.5 mph - N/A   Partly Cloudy
6:30 PM 60.8 °F 55.4 °F 82% 29.59 in 6.2 mi NNW 12.7 mph - N/A   Partly Cloudy
7:00 PM 59.0 °F 55.4 °F 88% 29.62 in 6.2 mi North 11.5 mph - N/A   Partly Cloudy
7:30 PM 59.0 °F 55.4 °F 88% 29.62 in 6.2 mi North 9.2 mph - N/A   Partly Cloudy
8:00 PM 57.2 °F 57.2 °F 100% 29.62 in 6.2 mi North 8.1 mph - N/A   Scattered Clouds
8:30 PM 57.2 °F 57.2 °F 100% 29.65 in 6.2 mi North 5.8 mph - N/A   Scattered Clouds
9:00 PM 57.2 °F 57.2 °F 100% 29.65 in 6.2 mi North 6.9 mph - N/A   Mostly Cloudy
9:30 PM 57.2 °F 57.2 °F 100% 29.65 in 6.2 mi North 11.5 mph - N/A   Scattered Clouds
10:00 PM 57.2 °F 57.2 °F 100% 29.65 in 6.2 mi NNE 6.9 mph - N/A   Mostly Cloudy
10:30 PM 57.2 °F 57.2 °F 100% 29.68 in 6.2 mi NNE 5.8 mph - N/A   Mostly Cloudy
11:00 PM 55.4 °F 55.4 °F 100% 29.68 in 6.2 mi Variable 2.3 mph - N/A   Mostly Cloudy
11:30 PM 55.4 °F 55.4 °F 100% 29.68 in 6.2 mi North 5.8 mph - N/A   Mostly Cloudy